Miscellaneous Local Product
Issued by NWS Hastings, NE

Home | Current Version | Previous Version | Text Only | Print | Product List | Glossary Off
Versions: 1 2 3 4 5 6 7 8 9 10 11 12 13 14 15 16 17 18 19 20 21 22 23 24 25 26 27 28 29 30 31 32 33 34 35 36 37 38 39 40 41 42 43 44 45 46 47 48 49 50

000
AXUS43 KGID 290702
MISGRI

GID CWA HOURLY WEATHER ROUNDUP
NATIONAL WEATHER SERVICE HASTINGS NE
200 AM CDT THU JUN 29 2017

NOTE: "FAIR" INDICATES FEW OR NO CLOUDS BELOW 12,000 FEET WITH NO
SIGNIFICANT WEATHER AND/OR OBSTRUCTIONS TO VISIBILITY.

...SOUTH CENTRAL NEBRASKA...

CITY           SKY/WX    TMP DP  RH WIND       PRES   REMARKS
GRAND ISLAND   CLOUDY    71  67  87 SE6       29.76S
HASTINGS       CLOUDY    71  61  70 SE3       29.79S
KEARNEY        CLOUDY    73  59  60 SE8       29.78F
ORD            CLOUDY    70  55  59 S3        29.70F
YORK           MOCLDY    68  66  94 NW5       29.77R
AURORA         CLOUDY    70  64  81 W6        29.77R
LEXINGTON      MOCLDY    73  53  50 NE12      29.73F
HOLDREGE       CLOUDY    71  60  68 SE12      29.76F
HEBRON         TSTM      69  64  85 S13       29.72F

...NEBRASKA PANHANDLE...

CITY           SKY/WX    TMP DP  RH WIND       PRES   REMARKS
CHADRON        CLEAR     57  53  86 NW5       29.82F
ALLIANCE       PTCLDY    65  50  58 SE10G22   29.83F
SCOTTSBLUFF    CLOUDY    64  52  64 E7        29.82F
SIDNEY         LGT RAIN  61  53  75 N8        29.91F

...WESTERN AND NORTH CENTRAL NEBRASKA...

CITY           SKY/WX    TMP DP  RH WIND       PRES   REMARKS
VALENTINE      CLOUDY    63  54  72 E18G25    29.79F
AINSWORTH      LGT RAIN  60  59  96 N23G31    29.88F
ONEILL         CLOUDY    65  60  83 NW3       29.79S
BROKEN BOW     PTCLDY    64  56  75 NE5       29.74F
IMPERIAL       CLOUDY    67  50  54 E8        29.77F
NORTH PLATTE   CLOUDY    65  57  75 E7        29.72F
MCCOOK         LGT RAIN  77  53  43 NW33G46   29.77F

...EASTERN NEBRASKA...

CITY           SKY/WX    TMP DP  RH WIND       PRES   REMARKS
NORFOLK        PTCLDY    67  62  84 S3        29.74R
SO SIOUX CITY  CLEAR     65  64  97 NW7       29.72R
TEKAMAH        CLEAR     65  62  90 S5        29.72R
COLUMBUS       CLEAR     69  66  90 CALM      29.76R
ALBION         CLOUDY    75  58  55 N9        29.74F
OMAHA EPPLEY   PTCLDY    72  65  78 SE3       29.72R
OFFUTT AFB     CLOUDY    68  67  96 N5        29.71S
MILLARD        CLOUDY    72  68  86 CALM      29.73S
LINCOLN        MOCLDY    74  67  78 CALM      29.73S
NEBRASKA CITY  CLOUDY    75  70  85 S3        29.72F
BEATRICE       CLOUDY    76  67  74 SW10      29.75R
FALLS CITY     CLOUDY    77  69  76 SE13      29.72F

...NORTHERN KANSAS...

CITY           SKY/WX    TMP DP  RH WIND       PRES   REMARKS
GOODLAND       TSTM      67  59  75 NW18      29.87R
HILL CITY      PTCLDY    75  64  68 SE5       29.73S
NORTON         SUNNY     73  55  53 N8        29.77
PHILLIPSBURG   PTCLDY    75  61  60 E8        29.74F
SMITH CENTER   MOCLDY    72  64  78 NE18      29.78R
HAYS           CLEAR     77  66  68 S10       29.72R
RUSSELL        CLEAR     78  65  63 S21       29.70R
CONCORDIA      TSTM      68  63  84 SE10      29.77S
SALINA         MOCLDY    83  66  56 SE9       29.75R
TOPEKA         CLOUDY    81  69  67 SW12      29.79R



USA.gov is the U.S. government's official web portal to all federal, state and local government web resources and services.